Torna al catalogo

COSMOS 2251 DEB

AttivoLEO
NORAD 35956·DEBRIS·🇷🇺 Russia

Lanciato Jun 16, 1993 da Plesetsk Cosmodrome

Loading…

Prossimi Passaggi (prossime 24 ore)

TLE

AggiornatoSource: Space-Track

Epoca: Sep 14, 2026, 01:50 UTC

1 35956U 93036AUW 26257.07705254  .00005106  00000-0  22064-2 0  9999
2 35956  74.0741 128.8273 0225117 139.7140 222.0929 14.11961203657447

Traccia COSMOS 2251 DEB in tempo reale con AllMySat

Download on the App Store